[[{"header":{"parameterUnit":"m.s-1","parameterCategory":1,"la1":30.2991,"la2":30.254,"lo1":-89.0895,"lo2":-89.0444,"dy":0.0017,"dx":0.0017,"nx":28,"ny":28,"refTime":"2023-04-02T21:00:00:Z","depth":0,"parameterNumber":2,"parameterNumberName":"U-component_of_WINDS"},"data":[0,0,0,0,0,0,0,0,0,0,0,0,0,0,0,0,0,0,0,0,0,0,0,0,0,0,0,0,0,0,0,0,0,0,0,0,0,0,0,0,0,0,0,0,0,0,0,0,0,0,0,0,0,0,0,0,0,0,1.2741,1.274,0,1.268,1.2679,1.2679,1.2608,1.2607,1.2606,1.2605,1.2545,1.2544,1.2544,0,0,0,0,0,0,0,0,0,0,0,0,0,1.2797,1.2797,1.2741,1.274,1.2739,1.268,1.2679,1.2679,1.2608,1.2607,1.2606,1.2605,1.2545,1.2544,1.2544,0,0,0,0,0,0,0,0,0,0,0,0,0,1.2759,1.2797,1.2741,1.2697,1.2693,1.268,1.2679,1.2678,1.2609,1.2607,1.2605,1.2604,1.2545,1.2544,1.2544,1.257,0,0,1.2541,1.254,0,0,0,0,0,0,0,0,1.2761,1.2757,1.2704,1.27,1.2695,1.265,1.2677,1.2642,1.2609,1.2641,1.2605,1.2603,1.2581,1.2577,1.257,1.2567,1.2565,1.2541,1.254,1.254,1.254,0,0,0,0,0,0,0,1.2764,1.2759,1.2717,1.2704,1.2698,1.2681,1.2674,1.267,1.2621,1.2638,1.2632,1.2626,1.2578,1.2571,1.2568,1.2564,1.2541,1.254,1.2539,1.2539,1.258,1.2582,0,0,0,0,0,0,1.2773,1.2761,1.2719,1.2715,1.2725,1.2681,1.2673,1.2666,1.2621,1.2612,1.2628,1.2623,1.2573,1.2569,1.2565,1.2593,1.254,1.2539,1.2538,1.2579,1.258,1.2582,0,0,0,0,0,0,1.2774,1.277,1.2721,1.2737,1.2729,1.2682,1.2675,1.2666,1.2658,1.2613,1.2604,1.2629,1.2572,1.2567,1.2569,1.259,1.2539,1.2538,1.2577,1.2579,1.2581,1.265,0,0,0,0,0,0,1.2776,1.277,1.278,1.2737,1.2729,1.2726,1.2676,1.2666,1.2656,1.265,1.2611,1.2604,1.257,1.2571,1.2568,1.2588,1.2537,1.2575,1.2578,1.2581,1.2645,1.2654,1.2662,0,0,0,0,0,1.2778,1.2802,1.2781,1.2776,1.2739,1.2727,1.2722,1.2683,1.2658,1.2667,1.2638,1.2605,1.2588,1.2572,1.2568,1.2588,1.2573,1.2577,1.258,1.2642,1.2652,1.2661,0,0,0,0,0,0,1.2848,1.2795,1.2771,1.2782,1.276,1.2715,1.2726,1.2695,1.268,1.2675,1.2626,1.2618,1.2627,1.2608,1.259,1.2611,1.2576,1.2579,1.2624,1.2633,1.2641,1.2646,1.2536,0,0,0,0,0,1.2865,1.2859,1.2813,1.2827,1.2817,1.2774,1.2767,1.2738,1.2713,1.2704,1.2675,1.2653,1.2642,1.2637,1.2625,1.2642,1.2633,1.2654,1.2662,1.2669,1.2672,1.268,1.2689,1.2594,1.2594,1.2594,0,0,1.2899,1.287,1.2869,1.284,1.282,1.2815,1.2766,1.2763,1.276,1.2703,1.2704,1.2682,1.2654,1.2665,1.2668,1.2649,1.2696,1.2674,1.2679,1.2679,1.2685,1.2694,1.2702,1.2597,1.2596,1.2596,0,0,1.296,1.2937,1.2945,1.2925,1.2895,1.2865,1.2868,1.2828,1.2811,1.2811,1.2769,1.2764,1.2747,1.2729,1.2717,1.2771,1.2739,1.2768,1.2811,1.2819,1.2827,1.2833,1.2852,1.2859,1.2772,1.2772,1.2772,0,1.3006,1.2997,1.2954,1.2954,1.2942,1.289,1.2899,1.2882,1.285,1.2843,1.2822,1.28,1.2778,1.2783,1.2796,1.2788,1.2789,1.2773,1.2829,1.2835,1.284,1.2858,1.2865,1.2776,1.2775,1.2775,1.2774,0,1.3056,1.3051,1.3062,1.3031,1.3021,1.3025,1.2983,1.2978,1.295,1.2923,1.2924,1.2895,1.2876,1.2875,1.2848,1.2876,1.2866,1.2838,1.2801,1.2854,1.2869,1.2876,1.2781,1.278,1.2779,1.2778,0,0,1.3159,1.3104,1.3109,1.3094,1.3056,1.3051,1.3053,1.3034,1.3031,1.301,1.3011,1.2998,1.2972,1.2959,1.2929,1.2936,1.2981,1.2907,1.2906,1.2922,1.301,1.3032,1.304,1.2959,1.296,1.2961,1.3012,0,1.3213,1.3213,1.3173,1.3185,1.3179,1.313,1.3132,1.3109,1.3084,1.3076,1.3049,1.304,1.3006,1.2998,1.3003,1.2974,1.2998,1.297,1.296,1.296,1.2969,1.3048,1.3071,1.312,1.3018,1.3019,1.302,0,1.3275,1.3257,1.3268,1.3229,1.3226,1.3228,1.3207,1.32,1.3174,1.3155,1.3141,1.3107,1.3107,1.3072,1.3071,1.3054,1.3047,1.3033,1.3034,1.3031,1.2994,1.3048,1.3135,1.3143,1.3029,1.3029,1.3028,0,1.3349,1.3328,1.3331,1.332,1.3275,1.3278,1.326,1.3231,1.3223,1.3205,1.3199,1.3181,1.3172,1.316,1.3123,1.3101,1.3126,1.3089,1.3111,1.3112,1.3119,1.3119,1.3206,1.3115,1.3115,1.3115,1.3115,0,1.3413,1.3421,1.3364,1.3366,1.3374,1.3329,1.3338,1.3315,1.3291,1.3288,1.3244,1.3243,1.3193,1.3186,1.3157,1.3161,1.3157,1.3143,1.3135,1.3146,1.3148,1.3142,1.3137,1.3117,1.3116,1.3116,1.3115,0,1.3497,1.3458,1.3459,1.3417,1.3406,1.3414,1.3378,1.3378,1.3351,1.3348,1.3344,1.3301,1.3291,1.3252,1.3232,1.3213,1.3226,1.3211,1.3235,1.323,1.3255,1.3253,1.3341,1.335,1.3253,1.3254,1.3255,0,1.354,1.3545,1.3503,1.3498,1.3481,1.3473,1.3464,1.342,1.3412,1.3382,1.3386,1.3372,1.3358,1.3344,1.3311,1.3296,1.328,1.3312,1.3277,1.3289,1.328,1.3281,1.3281,1.3319,1.3321,1.3322,1.3323,0,1.362,1.3601,1.3589,1.357,1.356,1.3544,1.3524,1.3523,1.3474,1.3467,1.3455,1.3445,1.3424,1.3411,1.339,1.3372,1.3339,1.3334,1.3338,1.335,1.3364,1.3357,1.3255,1.3332,1.3331,1.333,1.333,1.3329,1.3685,1.3687,1.3658,1.3646,1.3627,1.361,1.3608,1.358,1.357,1.3549,1.3524,1.3516,1.3489,1.3458,1.3442,1.3435,1.3417,1.3423,1.3425,1.3427,1.3433,1.3365,1.3431,1.343,1.343,1.343,1.343,0,1.3763,1.3742,1.3731,1.3706,1.3696,1.3666,1.3643,1.3638,1.363,1.3608,1.3595,1.3582,1.3569,1.3535,1.3519,1.352,1.3504,1.3517,1.3516,1.3513,1.345,1.3448,1.353,1.353,1.353,1.353,1.353,1.3529,1.3803,1.3805,1.3783,1.3775,1.3754,1.3745,1.3735,1.3719,1.3701,1.3688,1.3676,1.3654,1.3627,1.3608,1.3595,1.3586,1.3582,1.3599,1.3585,1.3527,1.3517,1.3508,1.3506,1.3599,1.3599,1.3648,1.3649,1.3649]},{"header":{"parameterUnit":"m.s-1","parameterCategory":1,"la1":30.2991,"la2":30.254,"lo1":-89.0895,"lo2":-89.0444,"dy":0.0017,"dx":0.0017,"nx":28,"ny":28,"refTime":"2023-04-02T21:00:00:Z","depth":0,"parameterNumber":3,"parameterNumberName":"V-component_of_WINDS"},"data":[0,0,0,0,0,0,0,0,0,0,0,0,0,0,0,0,0,0,0,0,0,0,0,0,0,0,0,0,0,0,0,0,0,0,0,0,0,0,0,0,0,0,0,0,0,0,0,0,0,0,0,0,0,0,0,0,0,0,5.7858,5.7859,0,5.7959,5.796,5.7961,5.7941,5.7939,5.7937,5.7935,5.8034,5.8038,5.8043,0,0,0,0,0,0,0,0,0,0,0,0,0,5.7644,5.7648,5.7857,5.7859,5.786,5.7958,5.796,5.7961,5.7941,5.7939,5.7937,5.7934,5.8033,5.8038,5.8043,0,0,0,0,0,0,0,0,0,0,0,0,0,5.774,5.7649,5.7857,5.7862,5.7863,5.7958,5.796,5.7961,5.7941,5.7939,5.7936,5.7933,5.8031,5.8037,5.8044,5.8139,0,0,5.8064,5.8067,0,0,0,0,0,0,0,0,5.7734,5.7748,5.786,5.7862,5.7864,5.7934,5.7921,5.8021,5.7942,5.7912,5.7935,5.7932,5.8003,5.8012,5.8036,5.8143,5.8148,5.8064,5.8068,5.8071,5.8073,0,0,0,0,0,0,0,5.7728,5.7743,5.7897,5.7862,5.7864,5.7858,5.7868,5.794,5.7971,5.7914,5.7913,5.7925,5.8003,5.803,5.8039,5.8149,5.8064,5.807,5.8074,5.8076,5.8341,5.8344,0,0,0,0,0,0,5.772,5.7738,5.7894,5.79,5.7791,5.7864,5.7876,5.7914,5.797,5.7976,5.7928,5.7924,5.802,5.8031,5.8042,5.8158,5.8071,5.8077,5.8081,5.8338,5.8341,5.8345,0,0,0,0,0,0,5.7715,5.7734,5.789,5.7819,5.7838,5.7871,5.7914,5.7918,5.7945,5.7981,5.7986,5.795,5.8019,5.8033,5.8116,5.8161,5.808,5.8086,5.8334,5.8339,5.8343,5.8391,0,0,0,0,0,0,5.7709,5.7733,5.777,5.782,5.7842,5.7963,5.7917,5.7922,5.7956,5.7953,5.8003,5.8008,5.8018,5.8106,5.8122,5.8169,5.8091,5.833,5.8336,5.8342,5.8385,5.8396,5.8406,0,0,0,0,0,5.7702,5.7778,5.7772,5.7791,5.7889,5.7966,5.7978,5.7989,5.796,5.7997,5.8021,5.8007,5.8154,5.8115,5.8133,5.8182,5.8327,5.8334,5.8341,5.838,5.8394,5.8406,0,0,0,0,0,0,5.773,5.7784,5.7778,5.7873,5.7915,5.7962,5.801,5.8003,5.8053,5.8047,5.8057,5.8068,5.8153,5.8175,5.8131,5.8277,5.8236,5.8247,5.826,5.8273,5.8283,5.8276,5.8096,0,0,0,0,0,5.7748,5.7806,5.785,5.7929,5.7951,5.7977,5.801,5.8015,5.8059,5.8076,5.8105,5.8147,5.8203,5.8239,5.8292,5.8388,5.8399,5.8431,5.8441,5.845,5.8459,5.8513,5.8528,5.8368,5.8368,5.8368,0,0,5.7784,5.7821,5.7857,5.7936,5.7969,5.8029,5.7992,5.8056,5.8101,5.8085,5.8166,5.8189,5.8236,5.8327,5.8368,5.8348,5.8506,5.8459,5.8465,5.847,5.8522,5.8537,5.855,5.8373,5.8372,5.8371,0,0,5.7881,5.7915,5.7985,5.802,5.8072,5.8089,5.8106,5.8154,5.817,5.8252,5.8242,5.8294,5.8389,5.8424,5.8454,5.8566,5.8555,5.8582,5.8637,5.8689,5.8702,5.8713,5.8754,5.8769,5.8592,5.8592,5.8592,0,5.7919,5.801,5.8022,5.8088,5.8124,5.8114,5.8186,5.8218,5.8284,5.8308,5.8285,5.8406,5.8437,5.8536,5.8564,5.8588,5.8608,5.8577,5.87,5.8711,5.8722,5.8761,5.8776,5.8595,5.8595,5.8594,5.8594,0,5.8055,5.8119,5.8169,5.8236,5.8276,5.8345,5.8366,5.8406,5.8407,5.8426,5.851,5.8547,5.8608,5.8632,5.8633,5.8731,5.8718,5.8697,5.8656,5.874,5.8777,5.8792,5.8599,5.8598,5.8597,5.8597,0,0,5.8172,5.8246,5.8264,5.8295,5.8352,5.8401,5.8468,5.853,5.8565,5.861,5.8668,5.875,5.8732,5.8766,5.8771,5.8817,5.8905,5.8791,5.8792,5.8811,5.9017,5.9033,5.905,5.8898,5.8901,5.8903,5.9013,0,5.8275,5.8398,5.8411,5.8519,5.8579,5.8571,5.863,5.8671,5.8691,5.8744,5.8765,5.8823,5.8795,5.8815,5.8861,5.8884,5.8946,5.8876,5.8951,5.8954,5.8941,5.9069,5.9086,5.9189,5.9028,5.903,5.9032,0,5.8412,5.8464,5.858,5.8631,5.8656,5.8709,5.8768,5.8818,5.8864,5.8875,5.8915,5.8914,5.8984,5.894,5.9036,5.8988,5.9019,5.9036,5.904,5.9048,5.8998,5.9082,5.9222,5.9237,5.9055,5.9053,5.9051,0,5.8487,5.8586,5.8669,5.8695,5.8756,5.8794,5.882,5.8864,5.8901,5.8952,5.8976,5.9033,5.9065,5.9109,5.9123,5.909,5.9219,5.9176,5.9231,5.9231,5.9259,5.9257,5.9407,5.9277,5.9277,5.9277,5.9276,0,5.8602,5.8673,5.8704,5.8755,5.8834,5.8848,5.8926,5.895,5.899,5.9045,5.9041,5.9092,5.9108,5.9162,5.9173,5.9252,5.9266,5.9277,5.9279,5.9278,5.9277,5.9299,5.9293,5.9281,5.928,5.9279,5.9278,0,5.8699,5.8723,5.8813,5.8864,5.8878,5.8935,5.8978,5.9027,5.9046,5.9116,5.9133,5.9163,5.9227,5.9246,5.9321,5.9329,5.9422,5.9417,5.9407,5.9407,5.9461,5.9456,5.9631,5.9655,5.9509,5.951,5.9512,0,5.8771,5.8826,5.8884,5.8922,5.8951,5.9011,5.9049,5.9065,5.9105,5.9163,5.9205,5.9268,5.9319,5.9421,5.9449,5.9507,5.9505,5.9562,5.9513,5.9511,5.9507,5.9504,5.951,5.9571,5.9573,5.9574,5.9575,0,5.8897,5.8907,5.8963,5.9024,5.9071,5.9119,5.9165,5.9196,5.9218,5.9263,5.9329,5.9369,5.9448,5.9511,5.957,5.9597,5.959,5.959,5.9606,5.9606,5.9598,5.9604,5.9433,5.9586,5.9585,5.9584,5.9584,5.9583,5.8985,5.9034,5.9083,5.9146,5.9184,5.9228,5.9277,5.9303,5.9359,5.9426,5.9431,5.9503,5.9549,5.9628,5.9658,5.9714,5.9697,5.9719,5.9725,5.9731,5.9736,5.9589,5.9724,5.9724,5.9724,5.9723,5.9723,0,5.9111,5.9143,5.9201,5.9268,5.9318,5.9309,5.936,5.9402,5.9466,5.951,5.9562,5.9638,5.9699,5.9733,5.9794,5.9833,5.9831,5.9848,5.9846,5.9852,5.9747,5.9728,5.9848,5.9848,5.9848,5.9848,5.9848,5.9848,5.9183,5.9267,5.9282,5.9384,5.9415,5.9487,5.9517,5.9557,5.9593,5.9679,5.9731,5.9753,5.9794,5.9858,5.9914,5.9922,5.9945,5.9965,5.9971,5.9872,5.9859,5.9847,5.9829,5.9969,5.9969,6.0072,6.0073,6.0074]}]]